• In Hungary
  • List of Countries
  • For 7 days
  • Water Temperature
  • Satellite Maps
  • Weather Map
  • News
  • Weather Widgets
  • user-avatar
    Login

    Hourly Weather Surakaevo

    Today, 23 May, Wednesday

    Time Temperature Precipitation Wind Pressure Humidity
    00:00 +13°C° 0 mm 2 mps 736 mmHg 83%
    01:00 +12°C° 0 mm 2 mps 736 mmHg 85%
    02:00 +12°C° 0 mm 2 mps 736 mmHg 86%
    03:00 +12°C° 0 mm 2 mps 736 mmHg 87%
    04:00 +11°C° 0 mm 1 mps 736 mmHg 88%
    05:00 +13°C° 0 mm 1 mps 736 mmHg 83%
    06:00 +14°C° 0 mm 1 mps 737 mmHg 79%
    07:00 +16°C° 0 mm 2 mps 737 mmHg 74%
    08:00 +19°C° 0 mm 1 mps 737 mmHg 67%
    09:00 +21°C° 0 mm 1 mps 738 mmHg 61%
    10:00 +23°C° 0 mm 1 mps 738 mmHg 54%
    11:00 +24°C° 0 mm 1 mps 738 mmHg 50%
    12:00 +25°C° 0 mm 1 mps 738 mmHg 45%
    13:00 +26°C° 0 mm 1 mps 737 mmHg 41%
    14:00 +26°C° 0 mm 1 mps 737 mmHg 42%
    15:00 +26°C° 0 mm 2 mps 737 mmHg 42%
    16:00 +27°C° 0 mm 2 mps 737 mmHg 42%
    17:00 +26°C° 0 mm 2 mps 736 mmHg 48%
    18:00 +25°C° 0 mm 2 mps 736 mmHg 53%
    19:00 +23°C° 0 mm 2 mps 736 mmHg 59%
    20:00 +21°C° 0 mm 2 mps 735 mmHg 61%
    21:00 +19°C° 0 mm 2 mps 735 mmHg 64%
    22:00 +18°C° 0 mm 2 mps 735 mmHg 67%
    23:00 +17°C° 0 mm 2 mps 735 mmHg 69%

    Tomorrow, 24 May, Thursday

    Time Temperature Precipitation Wind Pressure Humidity
    00:00 +18°C° 0 mm 1 mps 735 mmHg 71%
    01:00 +16°C° 0 mm 1 mps 734 mmHg 73%
    02:00 +16°C° 0 mm 1 mps 734 mmHg 74%
    03:00 +15°C° 0 mm 1 mps 734 mmHg 75%
    04:00 +15°C° 0 mm 1 mps 734 mmHg 77%
    05:00 +16°C° 0 mm 1 mps 734 mmHg 73%
    06:00 +18°C° 0 mm 2 mps 734 mmHg 70%
    07:00 +19°C° 0 mm 3 mps 733 mmHg 67%
    08:00 +20°C° 0 mm 3 mps 733 mmHg 64%
    09:00 +22°C° 0 mm 3 mps 733 mmHg 60%
    10:00 +23°C° 0 mm 4 mps 733 mmHg 57%
    11:00 +25°C° 0 mm 4 mps 733 mmHg 53%
    12:00 +26°C° 0 mm 4 mps 732 mmHg 49%
    13:00 +26°C° 0 mm 4 mps 732 mmHg 46%
    14:00 +27°C° 0 mm 4 mps 732 mmHg 45%
    15:00 +27°C° 0 mm 4 mps 731 mmHg 44%
    16:00 +27°C° 0 mm 4 mps 731 mmHg 42%
    17:00 +26°C° 0 mm 4 mps 730 mmHg 48%
    18:00 +25°C° 0 mm 3 mps 730 mmHg 54%
    19:00 +24°C° 0 mm 2 mps 730 mmHg 60%
    20:00 +21°C° 0 mm 2 mps 729 mmHg 65%
    21:00 +19°C° 0 mm 2 mps 729 mmHg 70%
    22:00 +18°C° 0 mm 1 mps 728 mmHg 75%
    23:00 +18°C° 0.3 mm 1 mps 728 mmHg 77%

    Day after tomorrow, 25 May, Friday

    Time Temperature Precipitation Wind Pressure Humidity
    00:00 +16°C° 0.3 mm 1 mps 728 mmHg 80%
    01:00 +15°C° 0.3 mm 1 mps 727 mmHg 83%
    02:00 +15°C° 0.4 mm 1 mps 727 mmHg 84%
    03:00 +15°C° 0.4 mm 1 mps 727 mmHg 84%
    04:00 +15°C° 0.4 mm 1 mps 726 mmHg 85%
    05:00 +15°C° 0.1 mm 1 mps 726 mmHg 83%
    06:00 +16°C° 0.1 mm 1 mps 726 mmHg 82%
    07:00 +18°C° 0.1 mm 1 mps 726 mmHg 80%
    08:00 +19°C° 0.6 mm 1 mps 725 mmHg 79%
    09:00 +18°C° 0.6 mm 2 mps 725 mmHg 78%
    10:00 +19°C° 0.6 mm 2 mps 725 mmHg 77%
    11:00 +19°C° 0.6 mm 2 mps 725 mmHg 76%
    12:00 +19°C° 0.6 mm 2 mps 725 mmHg 74%
    13:00 +19°C° 0.6 mm 3 mps 724 mmHg 73%
    14:00 +18°C° 0.4 mm 3 mps 724 mmHg 76%
    15:00 +17°C° 0.4 mm 3 mps 724 mmHg 78%
    16:00 +17°C° 0.4 mm 4 mps 724 mmHg 80%
    17:00 +14°C° 0.9 mm 4 mps 723 mmHg 83%
    18:00 +13°C° 0.9 mm 5 mps 723 mmHg 86%
    19:00 +10°C° 0.9 mm 6 mps 723 mmHg 89%
    20:00 +9°C° 0.8 mm 6 mps 723 mmHg 88%
    21:00 +9°C° 0.8 mm 6 mps 723 mmHg 86%
    22:00 +8°C° 0.8 mm 6 mps 723 mmHg 85%
    23:00 +8°C° 0.8 mm 6 mps 723 mmHg 83%

    26 May, Saturday

    Time Temperature Precipitation Wind Pressure Humidity
    00:00 +7°C° 0.8 mm 6 mps 723 mmHg 82%
    01:00 +7°C° 0.8 mm 6 mps 724 mmHg 80%
    02:00 +5°C° 0 mm 7 mps 724 mmHg 79%
    03:00 +4°C° 0 mm 7 mps 724 mmHg 77%
    04:00 +3°C° 0 mm 7 mps 724 mmHg 76%
    05:00 +2°C° 0 mm 8 mps 724 mmHg 75%
    06:00 +4°C° 0 mm 8 mps 725 mmHg 74%
    07:00 +3°C° 0 mm 9 mps 725 mmHg 73%
    08:00 +5°C° 0.1 mm 9 mps 725 mmHg 71%
    09:00 +6°C° 0.1 mm 9 mps 726 mmHg 69%
    10:00 +6°C° 0.1 mm 8 mps 726 mmHg 68%
    11:00 +7°C° 0.1 mm 8 mps 727 mmHg 64%
    12:00 +9°C° 0.1 mm 8 mps 727 mmHg 60%
    13:00 +10°C° 0.1 mm 8 mps 727 mmHg 57%
    14:00 +10°C° 0.1 mm 8 mps 728 mmHg 56%
    15:00 +10°C° 0.1 mm 8 mps 728 mmHg 55%
    16:00 +10°C° 0.1 mm 8 mps 728 mmHg 54%
    17:00 +9°C° 0 mm 8 mps 729 mmHg 56%
    18:00 +8°C° 0 mm 7 mps 729 mmHg 57%
    19:00 +6°C° 0 mm 7 mps 730 mmHg 59%
    20:00 +5°C° 0 mm 6 mps 730 mmHg 59%
    21:00 +5°C° 0 mm 5 mps 731 mmHg 60%
    22:00 +3°C° 0 mm 5 mps 731 mmHg 60%
    23:00 +3°C° 0 mm 4 mps 732 mmHg 63%

    27 May, Sunday

    Time Temperature Precipitation Wind Pressure Humidity
    00:00 +1°C° 0 mm 4 mps 732 mmHg 65%
    01:00 +2°C° 0 mm 3 mps 732 mmHg 68%
    02:00 +1°C° 0 mm 3 mps 732 mmHg 69%
    03:00 +1°C° 0 mm 3 mps 732 mmHg 71%
    04:00 +1°C° 0 mm 2 mps 732 mmHg 73%
    05:00 +2°C° 0 mm 3 mps 732 mmHg 69%
    06:00 +4°C° 0 mm 3 mps 733 mmHg 66%
    07:00 +5°C° 0 mm 3 mps 733 mmHg 63%
    08:00 +7°C° 0 mm 4 mps 733 mmHg 59%
    09:00 +10°C° 0 mm 4 mps 732 mmHg 55%
    10:00 +10°C° 0 mm 5 mps 732 mmHg 51%
    11:00 +12°C° 0 mm 5 mps 731 mmHg 51%
    12:00 +13°C° 0 mm 5 mps 731 mmHg 51%
    13:00 +14°C° 0 mm 5 mps 730 mmHg 51%
    14:00 +15°C° 0 mm 5 mps 730 mmHg 52%
    15:00 +15°C° 0 mm 6 mps 729 mmHg 54%
    16:00 +16°C° 0 mm 6 mps 728 mmHg 55%
    17:00 +15°C° 0.2 mm 5 mps 728 mmHg 62%
    18:00 +15°C° 0.2 mm 5 mps 727 mmHg 70%
    19:00 +14°C° 0.2 mm 4 mps 727 mmHg 77%
    20:00 +14°C° 1.2 mm 4 mps 726 mmHg 81%
    21:00 +13°C° 1.2 mm 5 mps 725 mmHg 85%
    22:00 +12°C° 1.2 mm 5 mps 724 mmHg 88%
    23:00 +12°C° 0.8 mm 5 mps 724 mmHg 89%

    28 May, Monday

    Time Temperature Precipitation Wind Pressure Humidity
    00:00 +11°C° 0.8 mm 6 mps 723 mmHg 89%
    01:00 +11°C° 0.8 mm 6 mps 722 mmHg 90%
    02:00 +11°C° 1 mm 7 mps 722 mmHg 90%
    03:00 +10°C° 1 mm 8 mps 722 mmHg 91%
    04:00 +10°C° 1 mm 9 mps 721 mmHg 91%
    05:00 +7°C° 0.9 mm 8 mps 722 mmHg 89%
    06:00 +6°C° 0.9 mm 8 mps 722 mmHg 87%
    07:00 +4°C° 0.9 mm 7 mps 723 mmHg 85%
    08:00 +5°C° 0 mm 7 mps 723 mmHg 76%
    09:00 +8°C° 0 mm 7 mps 724 mmHg 67%
    10:00 +9°C° 0 mm 8 mps 724 mmHg 57%
    11:00 +9°C° 0.1 mm 7 mps 724 mmHg 57%
    12:00 +10°C° 0.1 mm 7 mps 724 mmHg 56%
    13:00 +10°C° 0.1 mm 7 mps 724 mmHg 55%
    14:00 +10°C° 0.4 mm 7 mps 725 mmHg 58%
    15:00 +9°C° 0.4 mm 7 mps 725 mmHg 60%
    16:00 +9°C° 0.4 mm 7 mps 725 mmHg 63%
    17:00 +8°C° 0.3 mm 6 mps 725 mmHg 66%
    18:00 +7°C° 0.3 mm 5 mps 725 mmHg 70%
    19:00 +6°C° 0.3 mm 5 mps 725 mmHg 74%
    20:00 +5°C° 0 mm 4 mps 725 mmHg 77%
    21:00 +4°C° 0 mm 4 mps 725 mmHg 79%
    22:00 +3°C° 0 mm 4 mps 725 mmHg 82%
    23:00 +1°C° 0.1 mm 4 mps 725 mmHg 82%
    Show more